Location: Unspecified
(0.0000°N, 0.0000°E)
Time: 13:21:14
(UTC+00:00)

Hubble Space Telescope - Pass Details

Date: 27 March 2020
Orbit: 536 x 540 km, 28.5° (Epoch: 01 April)

Event Time Altitude Azimuth Distance (km) Brightness Sun altitude
Rises 19:24:44 0° 217° (SW) 2,671 4.8 -19.9°
Reaches altitude 10° 19:27:28 10° 199° (SSW) 1,780 3.6 -20.6°
Enters shadow 19:29:28 18° 172° (S) 1,344 2.7 -21.0°
